Weather History for Paganella, Italy

Change the Weather History Date:

Sunday, February 3, 2013

  Actual Average Record
Temperature  
Mean Temperature 12 °F -  
Max Temperature 15 °F 28 °F 44 °F (2004)
Min Temperature 10 °F 19 °F 0 °F (2012)
Degree Days  
Heating Degree Days 52    
Moisture  
Dew Point -3 °F    
Average Humidity 45    
Maximum Humidity 67    
Minimum Humidity 22    
Precipitation  
Precipitation 0.00 in 0.03 in - ()
Sea Level Pressure  
Sea Level Pressure 29.57 in    
Wind  
Wind Speed 30 mph ()    
Max Wind Speed 44 mph    
Max Gust Speed 67 mph    
Visibility 6.2 miles    
Events      
Averages and records for this station are not official NWS values.
T = Trace of Precipitation, MM = Missing Value Source: Averaged Metar Reports

Daily Weather History Graph

Daily Weather History Graph

Search for Another Location

Airport:

Trip Planner

Search our weather history database for the weather conditions in past years. The results will help you decide how hot, cold, wet, or windy it might be!

Date:

Astronomy

Feb. 03, 2013 Rise Set
Actual Time 7:36 AM CET 5:23 PM CET
Civil Twilight 7:04 AM CET 5:55 PM CET
Nautical Twilight 6:28 AM CET 6:31 PM CET
Astronomical Twilight 5:53 AM CET 7:06 PM CET
Moon 12:44 AM CET (2/3) 10:48 AM CET (2/3)
Length of Visible Light 10h 51m
Length of Day
9h 47m
Waning Gibbous, 51% of the Moon is Illuminated
Feb 3
Waning Gibbous
Feb 3
Last Quarter
Feb 10
New
Feb 17
First Quarter
Feb 25
Full

Hourly Weather History & Observations

Time (CET) Temp. Windchill Dew Point Humidity Pressure Visibility Wind Dir Wind Speed Gust Speed Precip Events Conditions
12:55 AM 15.8 °F -7.5 °F 5.0 °F 62% 29.30 in 6.2 mi North 43.7 mph 66.7 mph N/A   Overcast
1:00 AM 15 °F - 6 °F 53%  in 31 mi North 43.7 mph - -   Partly Cloudy
1:55 AM 14.0 °F -9.6 °F 5.0 °F 67% 29.30 in 6.2 mi North 41.4 mph 62.1 mph N/A   Overcast
2:55 AM 14.0 °F -9.3 °F 3.2 °F 62% 29.30 in 6.2 mi North 40.3 mph 64.4 mph N/A   Overcast
3:55 AM 14.0 °F -8.8 °F 3.2 °F 62% 29.33 in 6.2 mi North 38.0 mph 54.1 mph N/A   Overcast
4:00 AM 15 °F - 4 °F 48%  in 31 mi North 38.0 mph - -   Overcast
4:55 AM 14.0 °F -8.0 °F 3.2 °F 62% 29.36 in 6.2 mi North 34.5 mph 48.3 mph N/A   Scattered Clouds
5:55 AM 14.0 °F -8.3 °F 3.2 °F 62% 29.39 in 6.2 mi North 35.7 mph 51.8 mph N/A   Scattered Clouds
6:55 AM 12.2 °F -12.1 °F -2.2 °F 53% 29.42 in - North 41.4 mph 61.0 mph N/A   Clear
7:00 AM 12 °F - -3 °F 36%  in 31 mi North 41.4 mph - -   Partly Cloudy
7:55 AM 10.4 °F -14.1 °F -5.8 °F 48% 29.44 in - North 39.1 mph 58.7 mph N/A   Clear
8:55 AM 10.4 °F -14.1 °F -5.8 °F 48% 29.47 in - North 39.1 mph 57.5 mph N/A   Clear
9:55 AM 10.4 °F -12.7 °F -5.8 °F 48% 29.56 in - North 33.4 mph 46.0 mph N/A   Clear
10:00 AM 10 °F - -6 °F 31%  in 44 mi North 33.4 mph - -   Scattered Clouds
11:55 AM 14.0 °F -7.4 °F -4.0 °F 45% 29.62 in - North 32.2 mph 46.0 mph N/A   Clear
12:55 PM 14.0 °F -6.8 °F -4.0 °F 45% 29.65 in - North 29.9 mph 47.2 mph N/A   Clear
1:00 PM 14 °F - -4 °F 29%  in 37 mi North 29.9 mph - -  
1:55 PM 15.8 °F -3.7 °F -5.8 °F 38% 29.65 in - North 27.6 mph 39.1 mph N/A   Clear
2:55 PM 15.8 °F -2.7 °F -5.8 °F 38% 29.68 in - North 24.2 mph 41.4 mph N/A   Clear
3:55 PM 15.8 °F -3.1 °F -5.8 °F 38% 29.68 in - North 25.3 mph 39.1 mph N/A   Clear
4:00 PM 16 °F - -6 °F 22%  in 37 mi North 25.3 mph - -   Mostly Cloudy
4:55 PM 15.8 °F -2.7 °F -5.8 °F 38% 29.68 in - North 24.2 mph 35.7 mph N/A   Clear
5:55 PM 15.8 °F -0.2 °F -5.8 °F 38% 29.71 in - North 17.3 mph - N/A   Clear
6:55 PM 14.0 °F -0.8 °F -4.0 °F 45% 29.77 in - NNE 13.8 mph - N/A   Clear
7:00 PM 14 °F - -4 °F 30%  in 37 mi NNE 13.8 mph - -  
7:55 PM 14.0 °F -3.0 °F -4.0 °F 45% 29.77 in - North 18.4 mph - N/A   Clear
8:55 PM 12.2 °F -5.3 °F -4.0 °F 48% 29.77 in - North 18.4 mph - N/A   Clear
9:55 PM 14.0 °F 1.2 °F -5.8 °F 41% 29.77 in - North 10.4 mph - N/A   Clear
10:00 PM 14 °F - -6 °F 24%  in 31 mi North 10.4 mph - -  
10:55 PM 14.0 °F 5.1 °F -7.6 °F 38% 29.77 in - SSW 5.8 mph - N/A   Clear
11:55 PM 14.0 °F 0.5 °F -7.6 °F 38% 29.77 in - SSW 11.5 mph - N/A   Clear